Regional Weather Roundup
Issued by NWS Newport/Morehead, NC

Current Version | Previous Version | Text Only | Print | Product List | Glossary Off
Versions: 1 2 3 4 5 6 7 8 9 10 11 12 13 14 15 16 17 18 19 20 21 22 23 24 25 26 27 28 29 30 31 32 33 34 35 36 37 38 39 40 41 42 43 44 45 46 47 48 49 50
666 ASUS42 KMHX 301825 RWRMHX WEATHER ROUNDUP FOR EASTERN NORTH CAROLINA NATIONAL WEATHER SERVICE NEWPORT/MOREHEAD CITY NC 200 PM EDT MON MAY 30 2016 NOTE: "FAIR" INDICATES FEW OR NO CLOUDS BELOW 12,000 FEET WITH NO SIGNIFICANT WEATHER AND/OR OBSTRUCTIONS TO VISIBILITY NCZ015>017-031-032-045>047-102-103-301900- NORTH COAST CITY SKY/WX TMP DP RH WIND PRES REMARKS EDENTON CLOUDY 79 72 79 SE9 29.99 ELIZABETH CITY RAIN 74 73 97 SE7 29.99F KITTY HAWK LGT RAIN 73 72 96 SE3 29.99F MANTEO NOT AVBL $$ NCZ045>047-081-094-103-104-301900- CENTRAL COAST CITY SKY/WX TMP DP RH WIND PRES REMARKS FRISCO RAIN 72 70 93 CALM 30.01F $$ NCZ095-097-098-100-101-301900- SOUTHERN COAST CITY SKY/WX TMP DP RH WIND PRES REMARKS BEAUFORT HVY RAIN 72 71 97 NE3 29.98F FOG CEDAR ISLAND NOT AVBL JACKSONVILLE PTSUNNY 83 70 64 SE12 29.94F PINEY ISLAND RAIN N/A N/A N/A E6 29.98F WILMINGTON PTSUNNY 81 71 71 SE12 29.93F $$ NCZ011>013-027>030-043-044-078>080-089-090>093-098-301900- COASTAL PLAIN CITY SKY/WX TMP DP RH WIND PRES REMARKS AHOSKIE PTSUNNY 79 70 72 E5 29.97F CLINTON CLOUDY 82 73 73 E3 29.93F ELIZABETHTOWN PTSUNNY 83 69 64 E6 29.91F GOLDSBORO CLOUDY 72 72 100 NE8 29.95F GREENVILLE LGT RAIN 77 73 88 S3 29.99S HAVELOCK LGT RAIN 76 71 85 SE18G25 29.98R FOG KENANSVILLE CLOUDY 80 71 73 E5 29.95S KINSTON PTSUNNY 81 70 69 CALM 29.96F NEW BERN LGT RAIN 74 71 91 NE10 29.98R RICHLANDS PTSUNNY 83 70 64 SE10 29.94F ROCKY MOUNT CLOUDY 80 71 74 VRB6 29.96F WASHINGTON LGT RAIN 78 70 75 E6 29.96F WHITEVILLE PTSUNNY 81 69 66 SE8 29.90F $$ AMZ130-135-150-152-154-156-158-170-250-252-270-ANZ085-086-088-633-658-670-301900- MARINE OBSERVATIONS STATION/POSITION TIME TEMP WIND PRES WAVE SWELL AIR SEA DIR/SP/G HT/PER HT/PER (UTC) (F) (DEG/KT/KT) (MB) (FT/S) (FT/S) CHESAPEAKE LIGHT 1800 69 150/ 10/ 10 1016.3 64 E VA BEACH 1750 67 64 180/ 12/ 14 1016.0 5/ 7 5/ 7 DUCK 1800 67 58 150/ 11/ 12 1015.2 2 E DUCK 1811 62 N/A 4/ 7 OREGON INLET 1800 72 75 150/ 6/ 9 1016.0 13E OREGON INLT 1800 64 N/A 5/ 8 5/ 8 HATTERAS CG 1800 71 75 110/ 4/ 5 1015.4 DIAMOND BUOY 1750 73 80 240/ 10/ 17 1015.9 6/ 7 5/ 7 CAPE LOOKOUT 1800 73 310/ 7/ 8 1014.6 BEAUFORT LAB 1800 72 75 70/ 3/ 5 1014.4 30 SE NEW RVR IN 1725 77 N/A 6/ 8 27 SE WRIGHTSVLE 1808 79 76 180/ 10/ 14 1013.4 5 SE WRIGHTSVLE 1808 78 77 140/ 6/ 8 1014.2 225 S CAPE HAT 1750 74 76 170/ 8/ 10 1015.7 6/ 7 5/ 7 41 SE CHARLESTON 1750 74 78 240/ 10/ 12 1012.5 4/ 8 3/ 8 $$

USA.gov is the U.S. government's official web portal to all federal, state and local government web resources and services.